[[{"header":{"parameterUnit":"m.s-1","parameterCategory":1,"la1":30.2991,"la2":30.254,"lo1":-89.0895,"lo2":-89.0444,"dy":0.0017,"dx":0.0017,"nx":28,"ny":28,"refTime":"2025-11-21T09:00:00:Z","depth":0,"parameterNumber":2,"parameterNumberName":"U-component_of_WINDS"},"data":[0,0,0,0,0,0,0,0,0,0,0,0,0,0,0,0,0,0,0,0,0,0,0,0,0,0,0,0,0,0,0,0,0,0,0,0,0,0,0,0,0,0,0,0,0,0,0,0,0,0,0,0,0,0,0,0,0,0,1.1176,1.1177,0,1.1301,1.1303,1.1304,1.1353,1.1352,1.1352,1.1352,1.148,1.1483,1.1487,0,0,0,0,0,0,0,0,0,0,0,0,0,1.0978,1.0982,1.1176,1.1177,1.1179,1.1301,1.1303,1.1305,1.1353,1.1352,1.1352,1.1351,1.1479,1.1483,1.1488,0,0,0,0,0,0,0,0,0,0,0,0,0,1.108,1.0983,1.1175,1.1218,1.1223,1.1301,1.1303,1.1305,1.1353,1.1352,1.1352,1.1351,1.1477,1.1483,1.1488,1.1534,0,0,1.1505,1.1508,0,0,0,0,0,0,0,0,1.1074,1.1087,1.121,1.1215,1.1221,1.1311,1.128,1.1382,1.1353,1.1303,1.1352,1.1351,1.1424,1.1434,1.1459,1.154,1.1545,1.1506,1.1509,1.1512,1.1513,0,0,0,0,0,0,0,1.1067,1.1082,1.1225,1.1212,1.1218,1.1231,1.1244,1.13,1.1365,1.1308,1.1311,1.1326,1.1427,1.1453,1.1462,1.1547,1.1506,1.1511,1.1514,1.1516,1.1673,1.1674,0,0,0,0,0,0,1.1053,1.1076,1.1221,1.1229,1.1145,1.1234,1.125,1.1282,1.1365,1.1377,1.1326,1.1327,1.1444,1.1455,1.1467,1.1527,1.1512,1.1517,1.152,1.1673,1.1674,1.1674,0,0,0,0,0,0,1.1048,1.1065,1.1216,1.1154,1.1174,1.1238,1.1274,1.1285,1.1312,1.1379,1.139,1.1341,1.1444,1.1459,1.1517,1.1532,1.1519,1.1524,1.1672,1.1673,1.1674,1.1645,0,0,0,0,0,0,1.1043,1.1064,1.1081,1.1154,1.1177,1.1264,1.1275,1.1288,1.1321,1.1324,1.1396,1.1407,1.1445,1.1508,1.1523,1.1539,1.1529,1.1671,1.1672,1.1674,1.1645,1.1645,1.1646,0,0,0,0,0,1.1035,1.1068,1.1082,1.1099,1.12,1.1265,1.1278,1.1321,1.1322,1.1341,1.1384,1.1405,1.1528,1.1514,1.153,1.1549,1.167,1.1672,1.1673,1.1645,1.1645,1.1646,0,0,0,0,0,0,1.0994,1.1078,1.1094,1.1151,1.1201,1.1273,1.1297,1.132,1.137,1.137,1.1421,1.1437,1.1491,1.1526,1.1509,1.1598,1.16,1.1605,1.1573,1.1574,1.1574,1.1565,1.1534,0,0,0,0,0,1.0992,1.1037,1.1108,1.1151,1.1175,1.1232,1.1262,1.1291,1.1344,1.1365,1.1412,1.1463,1.1514,1.1546,1.1596,1.1651,1.1668,1.1672,1.1672,1.1672,1.1675,1.1709,1.1712,1.168,1.168,1.168,0,0,1.0987,1.1039,1.1064,1.1144,1.1186,1.1232,1.1249,1.1297,1.1332,1.1372,1.143,1.1467,1.1528,1.1585,1.1612,1.1615,1.1688,1.1674,1.1673,1.1677,1.1711,1.1714,1.1716,1.1682,1.1681,1.1681,0,0,1.1003,1.1046,1.1087,1.1129,1.1193,1.123,1.124,1.131,1.1336,1.1395,1.1427,1.1469,1.1555,1.1597,1.1629,1.1663,1.1684,1.1678,1.1678,1.171,1.1712,1.1715,1.1728,1.1732,1.1681,1.1681,1.1681,0,1.0989,1.106,1.1106,1.1153,1.1187,1.1226,1.1269,1.1308,1.1384,1.1407,1.1409,1.1519,1.1562,1.163,1.1638,1.1663,1.1677,1.167,1.1708,1.1711,1.1714,1.1727,1.1732,1.168,1.168,1.168,1.168,0,1.1041,1.1089,1.1115,1.1189,1.1227,1.1271,1.1324,1.1357,1.1383,1.142,1.1481,1.1535,1.1597,1.1615,1.164,1.1688,1.1688,1.1698,1.1702,1.1715,1.1728,1.1734,1.1678,1.1679,1.1679,1.1679,0,0,1.1033,1.1132,1.1141,1.1175,1.1249,1.1288,1.1334,1.1396,1.1423,1.1475,1.1516,1.1588,1.1599,1.1636,1.1667,1.1695,1.1719,1.1703,1.1705,1.1705,1.1776,1.1767,1.1772,1.1734,1.1735,1.1736,1.1771,0,1.1058,1.1144,1.1187,1.1254,1.13,1.1339,1.138,1.143,1.1467,1.1512,1.1553,1.1603,1.1614,1.1637,1.1666,1.171,1.1734,1.1708,1.1773,1.1775,1.1757,1.1779,1.177,1.18,1.1776,1.1777,1.1778,0,1.1099,1.1152,1.1223,1.1293,1.1314,1.135,1.1411,1.1453,1.1511,1.1536,1.1578,1.1608,1.166,1.166,1.1732,1.1713,1.1743,1.1769,1.1771,1.1779,1.1777,1.1788,1.1811,1.1816,1.1786,1.1785,1.1785,0,1.1087,1.1176,1.123,1.1259,1.1341,1.1366,1.1401,1.1459,1.1493,1.1546,1.1569,1.1627,1.1659,1.1704,1.175,1.1745,1.1818,1.1821,1.1841,1.184,1.1854,1.1853,1.1883,1.1872,1.1872,1.1872,1.1872,0,1.1112,1.1154,1.1226,1.126,1.1309,1.1359,1.1406,1.1445,1.1496,1.1538,1.1575,1.1614,1.1672,1.1718,1.1755,1.181,1.1824,1.1846,1.1855,1.1843,1.184,1.1863,1.1862,1.1873,1.1873,1.1873,1.1873,0,1.1106,1.1156,1.1219,1.1292,1.1312,1.1345,1.1408,1.1443,1.1482,1.1535,1.1551,1.1612,1.1669,1.1719,1.1794,1.1819,1.1875,1.1886,1.1856,1.1861,1.1878,1.1876,1.1924,1.1933,1.1916,1.1916,1.1916,0,1.1119,1.1153,1.123,1.1261,1.1296,1.1346,1.1382,1.1433,1.1468,1.1538,1.1564,1.1624,1.1674,1.1764,1.1815,1.1873,1.1886,1.1899,1.1895,1.1882,1.1888,1.1885,1.1889,1.1899,1.1899,1.1899,1.1899,0,1.1136,1.1159,1.1209,1.1269,1.1311,1.136,1.141,1.1434,1.1494,1.1533,1.1592,1.1631,1.1708,1.1767,1.1831,1.1868,1.1894,1.19,1.1908,1.1896,1.1877,1.1888,1.1856,1.1898,1.1898,1.1898,1.1899,1.1899,1.114,1.1173,1.1233,1.1288,1.1332,1.1378,1.1415,1.1459,1.1509,1.1576,1.1603,1.1663,1.1722,1.1811,1.1848,1.1896,1.1901,1.1912,1.1915,1.1917,1.1915,1.1869,1.1908,1.1908,1.1908,1.1908,1.1908,0,1.116,1.1201,1.1251,1.1321,1.1365,1.1385,1.1443,1.1478,1.1531,1.1583,1.1633,1.1701,1.1759,1.1816,1.1877,1.1905,1.1918,1.1919,1.1918,1.1926,1.1907,1.1895,1.1907,1.1907,1.1907,1.1907,1.1907,1.1907,1.1175,1.1231,1.1262,1.1341,1.1382,1.1441,1.1473,1.1516,1.1559,1.1633,1.1682,1.1719,1.1774,1.184,1.1894,1.1909,1.1931,1.1928,1.1947,1.1928,1.1927,1.1927,1.1915,1.1932,1.1932,1.1962,1.1963,1.1963]},{"header":{"parameterUnit":"m.s-1","parameterCategory":1,"la1":30.2991,"la2":30.254,"lo1":-89.0895,"lo2":-89.0444,"dy":0.0017,"dx":0.0017,"nx":28,"ny":28,"refTime":"2025-11-21T09:00:00:Z","depth":0,"parameterNumber":3,"parameterNumberName":"V-component_of_WINDS"},"data":[0,0,0,0,0,0,0,0,0,0,0,0,0,0,0,0,0,0,0,0,0,0,0,0,0,0,0,0,0,0,0,0,0,0,0,0,0,0,0,0,0,0,0,0,0,0,0,0,0,0,0,0,0,0,0,0,0,0,0.7625,0.7624,0,0.7557,0.7556,0.7555,0.752,0.752,0.752,0.752,0.7446,0.7444,0.7442,0,0,0,0,0,0,0,0,0,0,0,0,0,0.7721,0.7719,0.7625,0.7624,0.7623,0.7557,0.7556,0.7555,0.752,0.752,0.752,0.752,0.7447,0.7444,0.7442,0,0,0,0,0,0,0,0,0,0,0,0,0,0.7668,0.7718,0.7625,0.7598,0.7595,0.7557,0.7556,0.7555,0.752,0.752,0.752,0.752,0.7447,0.7444,0.7442,0.7424,0,0,0.7433,0.7431,0,0,0,0,0,0,0,0,0.7671,0.7665,0.7603,0.76,0.7596,0.7547,0.7562,0.7511,0.752,0.7549,0.752,0.752,0.7479,0.7474,0.7461,0.742,0.7417,0.7432,0.7431,0.7429,0.7428,0,0,0,0,0,0,0,0.7675,0.7667,0.7598,0.7602,0.7598,0.7588,0.758,0.7552,0.7515,0.7546,0.7543,0.7536,0.7477,0.7464,0.7459,0.7416,0.7432,0.743,0.7428,0.7427,0.7357,0.7357,0,0,0,0,0,0,0.7684,0.7671,0.76,0.7596,0.7635,0.7586,0.7578,0.7563,0.7515,0.7508,0.7536,0.7535,0.7469,0.7462,0.7456,0.7432,0.7429,0.7426,0.7425,0.7357,0.7357,0.7357,0,0,0,0,0,0,0.7686,0.7678,0.7603,0.7632,0.7622,0.7585,0.7568,0.7561,0.7548,0.7508,0.75,0.7529,0.7469,0.746,0.7432,0.7429,0.7425,0.7422,0.7357,0.7357,0.7357,0.7384,0,0,0,0,0,0,0.7689,0.7679,0.7672,0.7633,0.7621,0.7581,0.7568,0.756,0.7543,0.7541,0.7499,0.7492,0.7468,0.7437,0.7429,0.7425,0.742,0.7357,0.7357,0.7357,0.7383,0.7384,0.7386,0,0,0,0,0,0.7692,0.7682,0.7672,0.7664,0.7613,0.7581,0.7574,0.7548,0.7543,0.7536,0.751,0.7494,0.7431,0.7434,0.7426,0.742,0.7357,0.7357,0.7357,0.7382,0.7384,0.7386,0,0,0,0,0,0,0.7721,0.7676,0.7665,0.7642,0.7616,0.7576,0.7566,0.7551,0.7524,0.7523,0.749,0.748,0.7455,0.7435,0.744,0.74,0.7392,0.739,0.7414,0.7416,0.7417,0.7423,0.7418,0,0,0,0,0,0.7725,0.7704,0.7666,0.7649,0.7637,0.7604,0.7589,0.7571,0.7542,0.753,0.7502,0.7474,0.7447,0.743,0.7404,0.738,0.737,0.7371,0.7373,0.7374,0.7373,0.7358,0.7358,0.7356,0.7356,0.7356,0,0,0.7732,0.7705,0.7694,0.7654,0.7632,0.761,0.7594,0.7572,0.7556,0.7526,0.7499,0.7477,0.7443,0.7417,0.7404,0.7399,0.7371,0.7374,0.7375,0.7373,0.7358,0.7358,0.7358,0.7356,0.7356,0.7356,0,0,0.7734,0.7712,0.7695,0.7674,0.7641,0.7619,0.7615,0.7577,0.7562,0.7534,0.7512,0.7491,0.7446,0.7422,0.7404,0.7398,0.7381,0.739,0.7397,0.7383,0.7383,0.7383,0.7381,0.738,0.7389,0.7389,0.7389,0,0.7747,0.7715,0.7688,0.7668,0.7651,0.7625,0.7607,0.7587,0.7546,0.7534,0.7529,0.7473,0.7448,0.7416,0.7415,0.7401,0.7394,0.7394,0.7386,0.7386,0.7385,0.7382,0.7381,0.739,0.739,0.739,0.739,0,0.7732,0.771,0.77,0.7664,0.7645,0.7626,0.7596,0.758,0.7563,0.7542,0.7513,0.7482,0.7449,0.744,0.7423,0.7405,0.7403,0.7393,0.7384,0.7387,0.7383,0.7382,0.7392,0.7391,0.7391,0.7391,0,0,0.775,0.7699,0.7696,0.7679,0.7641,0.7623,0.7602,0.7571,0.7558,0.753,0.7511,0.7475,0.7465,0.7445,0.7425,0.7412,0.7409,0.7403,0.7402,0.7405,0.7386,0.7394,0.7393,0.7398,0.7397,0.7397,0.7389,0,0.7746,0.771,0.7685,0.7658,0.7637,0.7612,0.7593,0.7567,0.7546,0.7524,0.75,0.7475,0.7464,0.7452,0.7438,0.7412,0.7404,0.7412,0.7378,0.7377,0.7387,0.7391,0.74,0.7394,0.7387,0.7387,0.7387,0,0.7737,0.7712,0.7683,0.7647,0.7638,0.7622,0.7591,0.7571,0.754,0.7526,0.7504,0.7484,0.7459,0.7453,0.7418,0.7424,0.7409,0.7394,0.7393,0.7388,0.7382,0.7386,0.7391,0.739,0.7385,0.7385,0.7385,0,0.7753,0.7712,0.7689,0.7675,0.7633,0.7622,0.7604,0.7573,0.7556,0.7529,0.7517,0.7487,0.7471,0.7447,0.7419,0.7417,0.7386,0.7378,0.7372,0.7373,0.7367,0.7367,0.7369,0.7358,0.7358,0.7358,0.7358,0,0.7751,0.7734,0.7696,0.7682,0.7661,0.7633,0.7613,0.7593,0.7566,0.7546,0.7522,0.7504,0.7468,0.7445,0.7422,0.7396,0.7389,0.7376,0.737,0.7378,0.7379,0.7367,0.7366,0.7357,0.7357,0.7357,0.7358,0,0.7765,0.7739,0.7712,0.7675,0.7665,0.7652,0.7619,0.7603,0.7581,0.7557,0.7549,0.7514,0.7486,0.7456,0.7416,0.7401,0.7376,0.7368,0.7387,0.7384,0.738,0.738,0.7372,0.737,0.7361,0.7361,0.7362,0,0.7766,0.7752,0.7714,0.77,0.7683,0.766,0.7643,0.7614,0.7597,0.7561,0.755,0.752,0.7495,0.745,0.742,0.739,0.738,0.738,0.7375,0.7384,0.738,0.7381,0.7379,0.7381,0.7381,0.7381,0.7381,0,0.7769,0.7757,0.7734,0.7707,0.7688,0.7664,0.764,0.7629,0.7595,0.7577,0.7548,0.7529,0.749,0.746,0.7426,0.7405,0.7387,0.7383,0.738,0.7388,0.7399,0.7393,0.739,0.7383,0.7383,0.7383,0.7383,0.7383,0.7776,0.7763,0.7734,0.7709,0.7688,0.7666,0.765,0.7627,0.7603,0.757,0.7554,0.7525,0.7494,0.7447,0.7427,0.7403,0.7397,0.7393,0.7392,0.7391,0.7393,0.7404,0.7396,0.7396,0.7396,0.7396,0.7396,0,0.7778,0.7759,0.7737,0.7704,0.7684,0.7671,0.7643,0.7627,0.7603,0.7576,0.7552,0.7519,0.749,0.7458,0.7426,0.7413,0.7404,0.7406,0.7406,0.7402,0.74,0.7406,0.7414,0.7414,0.7414,0.7414,0.7414,0.7414,0.7777,0.7754,0.7739,0.7705,0.7685,0.7658,0.7643,0.7622,0.76,0.7565,0.7542,0.7522,0.7492,0.7459,0.7431,0.7422,0.7412,0.7416,0.7404,0.7403,0.7402,0.74,0.7406,0.7414,0.7414,0.7408,0.7408,0.7408]}]]